| time (UTC) | temp F | wind direction | speed knots | gust knots | rain 1hr in | rain 24hr in | rain mn in | humidity % | barometer mb |
| 20260905083005 | 78 | 181 | 0.9 | 3.5 | 0.00 | 0.03 | 0.00 | 86 | 1011.4 |
| 20260905081505 | 78 | 123 | 1.7 | 5.2 | 0.00 | 0.03 | 0.00 | 86 | 1011.4 |
| 20260905080003 | 79 | 216 | 1.7 | 4.3 | 0.00 | 0.03 | 0.00 | 85 | 1011.5 |
| 20260905074501 | 79 | 173 | 0.0 | 5.2 | 0.00 | 0.03 | 0.00 | 84 | 1011.5 |
| 20260905073100 | 79 | 127 | 0.9 | 3.5 | 0.00 | 0.03 | 0.00 | 83 | 1011.7 |
| 20260905071558 | 79 | 140 | 0.9 | 2.6 | 0.00 | 0.03 | 0.00 | 82 | 1011.7 |
| 20260905070111 | 79 | 180 | 0.0 | 5.2 | 0.00 | 0.03 | 0.00 | 81 | 1011.8 |
| 20260905064555 | 80 | 171 | 0.9 | 4.3 | 0.00 | 0.03 | 0.00 | 81 | 1011.9 |
| 20260905063058 | 80 | 157 | 1.7 | 5.2 | 0.00 | 0.03 | 0.00 | 80 | 1012.0 |
| 20260905061552 | 80 | 155 | 0.9 | 6.1 | 0.00 | 0.03 | 0.00 | 79 | 1012.0 |
| 20260905060050 | 80 | 97 | 1.7 | 5.2 | 0.00 | 0.03 | 0.00 | 78 | 1012.1 |
| 20260905054554 | 81 | 164 | 0.9 | 3.5 | 0.00 | 0.03 | 0.00 | 77 | 1012.1 |
| 20260905053046 | 81 | 150 | 1.7 | 6.1 | 0.00 | 0.03 | 0.00 | 76 | 1012.0 |
| 20260905051544 | 81 | 167 | 1.7 | 5.2 | 0.00 | 0.03 | 0.00 | 76 | 1012.1 |
| 20260905050041 | 81 | 159 | 1.7 | 3.5 | 0.00 | 0.03 | 0.00 | 76 | 1012.2 |
| 20260905044541 | 81 | 124 | 1.7 | 6.1 | 0.00 | 0.03 | 0.03 | 75 | 1012.1 |
| 20260905043040 | 81 | 162 | 1.7 | 6.1 | 0.00 | 0.03 | 0.03 | 75 | 1012.1 |
| 20260905041540 | 82 | 119 | 2.6 | 6.1 | 0.00 | 0.03 | 0.03 | 74 | 1012.0 |
| 20260905040048 | 82 | 141 | 0.9 | 3.5 | 0.00 | 0.03 | 0.03 | 74 | 1011.9 |
| 20260905034538 | 82 | 123 | 1.7 | 5.2 | 0.00 | 0.03 | 0.03 | 74 | 1011.9 |
| 20260905033037 | 82 | 136 | 0.9 | 3.5 | 0.00 | 0.03 | 0.03 | 74 | 1011.9 |
| 20260905031537 | 83 | 119 | 0.9 | 3.5 | 0.00 | 0.03 | 0.03 | 74 | 1011.9 |
| 20260905030043 | 83 | 126 | 0.9 | 5.2 | 0.00 | 0.03 | 0.03 | 73 | 1011.7 |
| 20260905024535 | 83 | 100 | 1.7 | 6.1 | 0.00 | 0.03 | 0.03 | 72 | 1011.5 |
| 20260905023035 | 84 | 143 | 1.7 | 3.5 | 0.00 | 0.03 | 0.03 | 71 | 1011.5 |
| 20260905021535 | 84 | 134 | 1.7 | 4.3 | 0.00 | 0.03 | 0.03 | 71 | 1011.3 |
| 20260905020034 | 84 | 124 | 2.6 | 6.1 | 0.00 | 0.03 | 0.03 | 71 | 1011.1 |
| 20260905014533 | 85 | 121 | 1.7 | 6.1 | 0.00 | 0.03 | 0.03 | 70 | 1010.8 |
| 20260905013035 | 85 | 142 | 2.6 | 7.0 | 0.00 | 0.03 | 0.03 | 69 | 1010.8 |
| 20260905011531 | 85 | 123 | 1.7 | 7.0 | 0.00 | 0.03 | 0.03 | 67 | 1010.6 |
| 20260905010040 | 86 | 162 | 1.7 | 9.6 | 0.00 | 0.03 | 0.03 | 66 | 1010.5 |
| 20260905004529 | 86 | 157 | 1.7 | 6.1 | 0.00 | 0.03 | 0.03 | 65 | 1010.5 |
| 20260905003032 | 87 | 123 | 2.6 | 9.6 | 0.00 | 0.03 | 0.03 | 63 | 1010.3 |
| 20260905001529 | 88 | 121 | 5.2 | 8.7 | 0.00 | 0.03 | 0.03 | 61 | 1010.2 |
| 20260905000028 | 89 | 143 | 3.5 | 8.7 | 0.00 | 0.03 | 0.03 | 55 | 1009.9 |
| 20260904234527 | 89 | 166 | 5.2 | 12.2 | 0.00 | 0.03 | 0.03 | 55 | 1009.9 |
| 20260904233028 | 92 | 132 | 5.2 | 13.0 | 0.00 | 0.03 | 0.03 | 54 | 1009.9 |
| 20260904231526 | 94 | 132 | 1.7 | 7.0 | 0.00 | 0.03 | 0.03 | 45 | 1009.8 |
| 20260904230043 | 94 | 167 | 3.5 | 7.0 | 0.00 | 0.03 | 0.03 | 41 | 1009.8 |
| 20260904224528 | 94 | 142 | 2.6 | 7.8 | 0.00 | 0.03 | 0.03 | 38 | 1009.9 |
| 20260904223023 | 95 | 150 | 1.7 | 7.8 | 0.00 | 0.03 | 0.03 | 36 | 1009.9 |
| 20260904221524 | 95 | 103 | 5.2 | 9.6 | 0.00 | 0.03 | 0.03 | 39 | 1010.1 |
| 20260904220020 | 95 | 145 | 4.3 | 7.8 | 0.00 | 0.03 | 0.03 | 37 | 1010.1 |
| 20260904214521 | 95 | 28 | 3.5 | 13.0 | 0.00 | 0.03 | 0.03 | 38 | 1010.3 |
| 20260904213017 | 95 | 167 | 2.6 | 6.1 | 0.00 | 0.03 | 0.03 | 40 | 1010.5 |
| 20260904211513 | 95 | 217 | 1.7 | 9.6 | 0.00 | 0.03 | 0.03 | 43 | 1010.6 |
| 20260904210011 | 94 | 80 | 4.3 | 8.7 | 0.00 | 0.03 | 0.03 | 41 | 1010.7 |
| 20260904204510 | 93 | 127 | 4.3 | 8.7 | 0.00 | 0.03 | 0.03 | 40 | 1011.0 |
| 20260904203004 | 92 | 113 | 3.5 | 10.4 | 0.00 | 0.03 | 0.03 | 43 | 1011.1 |
| 20260904201503 | 91 | 156 | 4.3 | 7.8 | 0.00 | 0.03 | 0.03 | 47 | 1011.4 |
| 20260904200004 | 91 | 105 | 3.5 | 7.8 | 0.00 | 0.03 | 0.03 | 46 | 1011.5 |
| 20260904194503 | 92 | 146 | 4.3 | 12.2 | 0.00 | 0.03 | 0.03 | 48 | 1011.7 |
| 20260904193002 | 91 | 107 | 5.2 | 10.4 | 0.00 | 0.03 | 0.03 | 47 | 1011.9 |
| 20260904191600 | 91 | 175 | 4.3 | 11.3 | 0.00 | 0.03 | 0.03 | 49 | 1011.9 |
| 20260904190058 | 92 | 145 | 3.5 | 9.6 | 0.00 | 0.03 | 0.03 | 53 | 1012.1 |
| 20260904184557 | 92 | 142 | 2.6 | 7.8 | 0.00 | 0.03 | 0.03 | 54 | 1012.3 |
| 20260904183112 | 92 | 142 | 4.3 | 8.7 | 0.00 | 0.03 | 0.03 | 58 | 1012.4 |
| 20260904181555 | 91 | 135 | 5.2 | 11.3 | 0.00 | 0.03 | 0.03 | 57 | 1012.4 |
| 20260904180056 | 92 | 115 | 5.2 | 10.4 | 0.00 | 0.03 | 0.03 | 58 | 1012.6 |
| 20260904174554 | 92 | 125 | 3.5 | 9.6 | 0.00 | 0.03 | 0.03 | 58 | 1012.6 |
| 20260904173053 | 91 | 158 | 4.3 | 8.7 | 0.00 | 0.03 | 0.03 | 59 | 1012.7 |
| 20260904171551 | 92 | 136 | 2.6 | 8.7 | 0.00 | 0.03 | 0.03 | 58 | 1012.9 |
| 20260904170047 | 91 | 121 | 4.3 | 7.8 | 0.00 | 0.03 | 0.03 | 62 | 1013.0 |
| 20260904164546 | 91 | 151 | 3.5 | 7.8 | 0.00 | 0.03 | 0.03 | 60 | 1013.0 |
| 20260904163041 | 90 | 211 | 0.9 | 5.2 | 0.00 | 0.03 | 0.03 | 67 | 1012.9 |
| 20260904161541 | 89 | 233 | 2.6 | 6.1 | 0.00 | 0.03 | 0.03 | 67 | 1012.8 |
| 20260904160034 | 88 | 153 | 2.6 | 8.7 | 0.00 | 0.03 | 0.03 | 69 | 1012.9 |
| 20260904154531 | 87 | 229 | 3.5 | 7.0 | 0.00 | 0.03 | 0.03 | 71 | 1012.8 |
| 20260904153027 | 85 | 184 | 1.7 | 7.8 | 0.01 | 0.03 | 0.03 | 77 | 1012.8 |
| 20260904151526 | 82 | 144 | 2.6 | 6.1 | 0.01 | 0.03 | 0.03 | 83 | 1012.8 |
| 20260904150025 | 81 | 189 | 0.9 | 4.3 | 0.01 | 0.03 | 0.03 | 86 | 1012.7 |
| 20260904144515 | 80 | 161 | 3.5 | 7.0 | 0.01 | 0.03 | 0.03 | 89 | 1012.6 |
| 20260904143011 | 79 | 165 | 0.9 | 4.3 | 0.00 | 0.02 | 0.02 | 92 | 1012.5 |
| 20260904141511 | 79 | 149 | 1.7 | 5.2 | 0.00 | 0.02 | 0.02 | 92 | 1012.5 |
| 20260904140009 | 78 | 232 | 0.9 | 7.0 | 0.01 | 0.02 | 0.02 | 92 | 1012.5 |
| 20260904134517 | 78 | 159 | 0.9 | 3.5 | 0.02 | 0.02 | 0.02 | 92 | 1012.4 |
| 20260904133008 | 78 | 211 | 1.7 | 5.2 | 0.02 | 0.02 | 0.02 | 92 | 1012.3 |
| 20260904131509 | 78 | 225 | 0.9 | 3.5 | 0.02 | 0.02 | 0.02 | 91 | 1012.4 |
| 20260904130009 | 78 | 182 | 0.0 | 3.5 | 0.01 | 0.01 | 0.01 | 91 | 1012.5 |
| 20260904124505 | 78 | 134 | 0.9 | 4.3 | 0.00 | 0.00 | 0.00 | 90 | 1012.5 |
| 20260904123009 | 78 | 162 | 0.9 | 3.5 | 0.00 | 0.00 | 0.00 | 89 | 1012.5 |
| 20260904121501 | 79 | 44 | 1.7 | 3.5 | 0.00 | 0.00 | 0.00 | 88 | 1012.4 |
| 20260904120111 | 79 | 95 | 0.9 | 4.3 | 0.00 | 0.00 | 0.00 | 88 | 1012.2 |
| 20260904114555 | 79 | 81 | 1.7 | 6.1 | 0.00 | 0.00 | 0.00 | 87 | 1012.0 |
| 20260904113052 | 79 | 103 | 1.7 | 4.3 | 0.00 | 0.00 | 0.00 | 87 | 1011.5 |
| 20260904111549 | 79 | 173 | 0.9 | 6.1 | 0.00 | 0.00 | 0.00 | 86 | 1011.3 |
| 20260904110053 | 79 | 175 | 3.5 | 7.8 | 0.00 | 0.00 | 0.00 | 86 | 1011.3 |
| 20260904104548 | 79 | 180 | 1.7 | 7.8 | 0.00 | 0.00 | 0.00 | 86 | 1011.2 |
| 20260904103047 | 79 | 126 | 1.7 | 7.0 | 0.00 | 0.00 | 0.00 | 86 | 1011.0 |
| 20260904101545 | 79 | 144 | 1.7 | 4.3 | 0.00 | 0.00 | 0.00 | 86 | 1011.1 |
| 20260904100047 | 79 | 163 | 1.7 | 3.5 | 0.00 | 0.00 | 0.00 | 85 | 1011.0 |
| 20260904094544 | 79 | 136 | 1.7 | 6.1 | 0.00 | 0.00 | 0.00 | 85 | 1010.8 |
| 20260904093043 | 79 | 165 | 2.6 | 6.1 | 0.00 | 0.00 | 0.00 | 84 | 1010.8 |
| 20260904091542 | 80 | 156 | 1.7 | 7.0 | 0.00 | 0.00 | 0.00 | 84 | 1010.8 |
| 20260904090040 | 80 | 162 | 2.6 | 7.0 | 0.00 | 0.00 | 0.00 | 84 | 1010.9 |
| 20260904084540 | 80 | 155 | 1.7 | 6.1 | 0.00 | 0.00 | 0.00 | 84 | 1010.9 |